www.pogodaiklimat.ru

Архив погоды в Махачкале (Дагестан, Россия)

Время
(UTC), дата
00 28.06
03 28.06
06 28.06
09 28.06
12 28.06
15 28.06
18 28.06
21 28.06
00 29.06
03 29.06
06 29.06
09 29.06
12 29.06
15 29.06
18 29.06
21 29.06
00 30.06
03 30.06
06 30.06
09 30.06
12 30.06
15 30.06
18 30.06
21 30.06
00 1.07
03 1.07
06 1.07
09 1.07
12 1.07
15 1.07
18 1.07
21 1.07
00 2.07
03 2.07
06 2.07
09 2.07
12 2.07
15 2.07
18 2.07
21 2.07
00 3.07
03 3.07
06 3.07
09 3.07
12 3.07
15 3.07
18 3.07
21 3.07
00 4.07
03 4.07
06 4.07
09 4.07
12 4.07
15 4.07
18 4.07
Ветер
(напр.,м/с)
Видим. Явления Облачность Т
(С)
Тd
(С)
f
(%)
Тe
(С)
Тes
(С)
Комфортность P
(гПа)
Po
(гПа)
Тmin
(С)
Tmax
(С)
R
(мм)
R24
(мм)
S
(см)
З 3 10 км 8/0
[Ac cast Ci fib]
+23.2 +17.1 69 +28 +28 душно 1006.8 1008.9
СЗ 6-10
{10}
10 км 1/0
[Ac As Ci fib]
+25.0 +17.1 62 +29 +29 душно 1007.5 1009.6 +23.2
СЗ 7-13
{14}
10 км 8/3 600 м
[Sc Ac As Ci fib]
+26.6 +16.3 53 +30 +32 душно 1008.0 1010.1
СЗ 6-10
{13}
10 км 6/0
[Ac cast Ci fib]
+30.5 +15.1 39 +33 +38 душно 1007.7 1009.8
СВ 4
{11}
10 км 8/0
[Ac cast Ci fib]
+29.1 +14.2 40 +31 +36 жарко 1008.3 1010.3
С 4 10 км 6/0
[Ac As Ci fib]
+29.1 +9.6 30 +29 +30 жарко 1009.6 1011.7 +31.3
СЗ 3 10 км 6/0
[Ac cast Ci fib]
+23.9 +11.0 44 +25 +25 комфорт 1011.9 1014.0
З 2 10 км в посл. час ливневой дождь {гроза} 9/4 600 м
[Cb calv Ac As Ci fib]
+21.6 +12.2 55 +24 +24 комфорт 1011.3 1013.4
З 2 10 км {гроза, ливн. дождь} 5/0
[Ac cast Ci fib]
+21.6 +10.6 50 +23 +23 комфорт 1010.6 1012.7
З 2 10 км 9/3 600 м
[Sc Ac cast Ci fib]
+22.2 +10.1 46 +24 +25 комфорт 1011.8 1013.9 +21.1 0.0
СЗ 2 20 км 6/3 600 м
[Sc Ac As Ci fib]
+27.0 +9.0 32 +27 +34 жарко 1012.1 1014.2
СЗ 1 20 км ясно +29.5 +13.6 38 +31 +54 опасность
солнечного
удара
1011.6 1013.8
В 2 20 км ясно +29.4 +15.6 43 +32 +44 душно 1011.4 1013.4
ЮВ 2 20 км 6/3 600 м
[Sc Ac As Ci fib]
+26.8 +18.2 59 +31 +32 душно 1011.4 1013.5 +30.3
ЮВ 2 20 км ясно +24.5 +18.6 70 +29 +29 душно 1012.1 1014.2
В 2 20 км ясно +23.7 +18.9 74 +28 +28 душно 1012.0 1014.0
ЮВ 3 20 км 9/3 600 м
[Sc Ac As Ci fib]
+23.0 +18.8 77 +29 +29 очень
душно
1012.4 1014.4
ЮВ 2 20 км 4/0
[Ac As Ci fib]
+23.7 +18.5 73 +28 +30 душно 1012.8 1014.9 +20.8
ЮВ 4 20 км ясно +25.0 +17.4 63 +29 +38 душно 1013.0 1015.1
ЮВ 3 20 км 6/0
[Ac cast Ci fib]
+26.5 +17.0 56 +30 +42 душно 1012.2 1014.3
ЮВ 5-10
{10}
20 км 6/0
[Ac cast Ci fib]
+25.5 +16.2 56 +29 +33 душно 1011.4 1013.5
ЮВ 4
{10}
20 км 8/0
[Ac cast Ci fib]
+24.4 +14.6 54 +27 +27 жарко 1011.6 1013.7 +26.8
ЮВ 4 20 км 8/0
[Ac cast Ci fib]
+23.9 +11.8 47 +26 +26 жарко 1012.3 1014.3
Ю 2 20 км 10/4 600 м
[Sc diur, vesp Ac As]
+23.2 +13.6 55 +27 +27 душно 1012.8 1014.9
Ю 4 20 км {ливн. дождь} 10/6 600 м
[Sc diur, vesp Ac As]
+20.5 +11.0 54 +22 +22 комфорт 1010.9 1013.0
ЮВ 4 20 км 8/0
[Ac cast Ci fib]
+21.6 +12.1 55 +24 +25 комфорт 1010.8 1012.9 +18.9 1
ЮВ 3
{10}
10 км ясно +25.3 +16.0 56 +29 +39 душно 1011.1 1013.2
ЮВ 5-10
{10}
10 км ясно +25.9 +14.3 49 +28 +39 жарко 1011.1 1013.2
ЮВ 4
{10}
10 км 4/0
[Ac As Ci fib]
+24.7 +15.7 57 +28 +34 душно 1009.6 1011.6
ЮВ 4
{10}
10 км 10/6 600 м
[Cb calv Ac As]
+23.1 +15.7 63 +27 +28 душно 1009.5 1011.6 +26.4
ЮВ 1 10 км 10/4 600 м
[Cb calv Ac As]
+22.7 +16.6 68 +27 +27 душно 1010.4 1012.5
штиль 0 10 км 9/4 600 м
[Sc Ac As Ci fib]
+21.6 +17.5 77 +26 +26 душно 1009.2 1011.3
штиль 0 10 км 9/4 600 м
[Sc Ac As Ci fib]
+19.5 +16.0 80 +21 +21 комфорт 1007.7 1009.8
штиль 0 10 км 8/3 600 м
[Sc diur, vesp Ac cast Ci fib]
+21.2 +17.1 77 +25 +26 комфорт 1008.0 1010.1 +19.4
штиль 0 10 км 9/4 600 м
[Sc Ac cast Ci fib]
+25.0 +18.0 65 +29 +35 душно 1008.4 1010.5
СЗ 4 10 км 10/4 600 м
[Sc Ac As]
+27.3 +12.2 39 +29 +31 жарко 1008.8 1010.9
С 3 10 км 9/4 600 м
[Sc Ac As Ci fib]
+27.8 +10.0 33 +28 +32 жарко 1008.7 1010.7
ЮЗ 1 10 км ливневой дождь 10/10 600 м
[Cb cap]
+27.8 +10.0 33 +28 +28 жарко 1008.7 1012.4 +29.1 0.8
З 1 10 км в посл. час ливневой дождь 9/4 600 м
[Cb cap]
+20.4 +15.0 71 +24 +24 комфорт 1011.4 1013.5
СЗ 5 10 км {ливн. дождь} 8/0
[Ac As Ci fib]
+20.4 +12.3 60 +22 +22 комфорт 1012.1 1014.2
СЗ 6-11
{11}
10 км 4/0
[Ci fib]
+21.0 +7.0 40 +22 +22 комфорт 1011.3 1013.5
СЗ 6-12
{14}
10 км ясно +21.5 +6.7 38 +22 +23 комфорт 1011.9 1014.0 +19.3 0.0
СЗ 9-18
{19}
20 км ясно +25.0 +6.6 31 +25 +26 комфорт 1011.8 1013.9
СЗ 9-16
{21}
20 км 8/6 600 м
[Cu med, cong Cc]
+27.0 +6.5 27 +26 +27 жарко 1011.7 1013.8
СЗ 7-13
{18}
20 км 3/3 600 м
[Cu med, cong]
+29.0 +6.0 23 +28 +30 жарко 1010.7 1012.7
СЗ 5
{15}
20 км ясно +28.2 +5.7 24 +27 +28 жарко 1010.9 1013.0 +29.2
ЮЗ 2
{13}
20 км ясно +20.7 +10.7 53 +23 +23 комфорт 1012.8 1014.9
СЗ 3 20 км ясно +22.9 +6.9 36 +24 +24 комфорт 1012.4 1014.5
З 3 20 км ясно +22.2 +7.3 38 +23 +23 комфорт 1012.5 1014.6
СЗ 4 20 км ясно +21.1 +9.3 47 +22 +24 комфорт 1013.9 1016.1 +18.6
СЗ 6-12
{13}
20 км ясно +27.9 +5.7 24 +27 +32 жарко 1014.2 1016.3
СЗ 6-12
{14}
20 км 3/1 600 м
[Cu hum Ac cast Ci fib]
+30.0 +4.8 20 +28 +34 жарко 1014.0 1016.0
ЮВ 3
{12}
20 км 3/1 600 м
[Cu hum Ac cast Ci fib]
+26.1 +16.3 55 +30 +37 душно 1013.6 1015.7
ЮВ 4 10 км ясно +23.9 +15.7 60 +27 +28 жарко 1013.2 1015.3 +31.7
ЮВ 2 20 км ясно +22.9 +16.0 65 +27 +27 душно 1013.5 1015.6
Местоположение метеостанции Махачкала (Дагестан, Россия): широта 43.02 долгота 47.48 высота над уровнем моря -19 м.
В архиве по умолчанию представлена погода в Махачкале за последнюю неделю. Архивные данные за месяц целиком и за предыдущие месяцы, начиная с января 2011 года, Вы можете получить, выбрав интересующий диапазон дат из раскрывающегося списка и нажав кнопку "Найти!".
*Определитесь, кто Вы:
Внимание! Время в таблицах - всемирное. Для получения местного времени необходимо прибавить поправку, которая равна 3 ч.
Смотрите также архив погоды в соседних городах и на ближайших метеорологических станциях:
Партнеры нашего сайта:      
Пояснения к столбцам:
  • Ветер - указаны скорость ветра в м/с - средняя за 10 мин, порывы в срок и между сроками (в фигурных скобках) и направление, откуда дует ветер: С - северный,
  • СВ - северо-восточный, В - восточный, ЮВ - юго-восточный, Ю - южный, ЮЗ - юго-западный, З - западный, СЗ - северо-западный.
  • Видимость - горизонтальная дальность видимости в метрах или километрах. При видимости от 1 до 10 км при отсутствии осадков обычно наблюдается дымка, при ухудшении видимости до 1 км и менее - туман. В сухую погоду видимость может ухудшаться дымом, пылью или мглою.
  • Явления - указаны атмосферные явления, наблюдавшиеся в срок или в последний час перед сроком; фигурными скобками обозначены явления, наблюдавшиеся между сроками (за 1-3 часа до срока); квадратными скобками обозначены град или гололедные отложения с указанием их диаметра в мм.
  • Облачность - указаны через наклонную черту общая и нижняя облачность в баллах и высота нижней границы облаков в метрах; квадратными скобками обозначены формы облаков: Ci - перистые, Cs - перисто-слоистые, Cc - перисто-кучевые, Ac - высококучевые, As - высокослоистые, Sc - слоисто-кучевые, Ns - слоисто-дождевые, Cu - кучевые, Cb - кучево-дождевые. Подробнее классификацию облаков см. в Атласе облаков (PDF).
  • T - Температура воздуха - температура, измеренная на высоте 2 м над землей.
  • Td - Температура точки росы - температура, при понижении до которой содержащийся в воздухе водяной пар достигнет насыщения.
  • f - Относительная влажность воздуха - влажноcть воздуха, измеренная на высоте 2 м над землей.
  • Te - Эффективная температура - температура, которую ощущает одетый по сезону человек в тени. Характеристика душности погоды. При расчете учитывается влияние влажности воздуха и скорости ветра на теплоощущения человека.
  • Tes - Эффективная температура на солнце - температура, которую ощущает человек, с поправкой на солнечный нагрев. Характеристика знойности погоды. Зависит от высоты солнца над горизонтом, облачности и скорости ветра. Ночью, в пасмурную погоду, а также при ветре 12 м/с и более поправка равна нулю.
  • P - Атмосферное давление - приведенное к уровню моря атмосферное давление.
  • Po - Атмосферное давление - измеренное на уровне метеостанции атмосферное давление.
  • Tmin - Минимальная температура - минимум температуры воздуха на высоте 2 м над землей.
  • Tmax - Максимальная температура - максимум температуры воздуха на высоте 2 м над землей.
  • R - Количество осадков - Количество выпавших осадков за период времени, мм. При наведении курсора мыши на число - период времени, за который выпало указанное количество осадков.
  • R24 - Количество осадков - Количество выпавших осадков за 24 часа, мм.
  • S - Снежный покров - Высота снежного покрова, см. При наведении курсора мыши на число - состояние снежного покрова и степень покрытия местности в баллах.